Japanese version Home page |
Updated on September 3, 2011 |
|
Orbital ElementsEpoch 1999 Dec. 8.0 TT = JDT 2451520.5 T 1999 Nov. 18.46555 TT MPC q 1.8463172 (2000.0) P Q n 0.09234328 Peri. 111.31484 +0.47891600 -0.83255034 a 4.8476640 Node 306.97877 +0.61918617 +0.54515918 e 0.6191326 Incl. 20.39445 +0.62229250 +0.09829245 P 10.67 From 206 observations 1999 Oct. 30-2010 Aug. 13, mean residual 0".57.
|
Finding Charts
|
Magnitudes Graphm1 = 11.5 + 5 log d + 15.0 log r(t - 60)
|
The orbital elements are published on M.P.E.C. 2010-P57.
|